HISPASAT 36W-1

Last updated on Mon Sep 15 2025 00:02:49 GMT+0000 (Coordinated Universal Time)

1 41942U 17006A 25257.22139661 -.00000256 00000+0 00000+0 0 9997 2 41942 0.0119 358.4554 0001042 172.8113 225.8910 1.00270461 31458
UTC large
Height (km)
Speed (km/s)
/
Latitude / Longitude
Inclination (degrees)
Orbital Period (minutes)
Azimuth
Elevation
Range (km)
Doppler Factor

Next 0 passes for location: London (51.5072 / 0.1276)

Sorry there are no passes over London.